Time,TemperatureF,DewpointF,PressureIn,WindDirection,WindDirectionDegrees,WindSpeedMPH,WindSpeedGustMPH,Humidity,HourlyPrecipIn,Conditions,Clouds,dailyrainin,SoftwareType,DateUTC
2013-02-24 00:07:00,37.6,14.9,29.23,NNE,20,0.0,0.0,39,0.00,,,0.00,VWS V14.01,2013-02-24 05:07:00,
2013-02-24 00:22:00,37.2,15.1,29.23,NNE,20,0.0,0.0,40,0.00,,,0.00,VWS V14.01,2013-02-24 05:22:00,
2013-02-24 00:37:00,37.0,15.0,29.23,NNE,20,0.0,0.0,40,0.00,,,0.00,VWS V14.01,2013-02-24 05:37:00,
2013-02-24 00:52:00,37.0,15.0,29.23,NNE,20,0.0,0.0,40,0.00,,,0.00,VWS V14.01,2013-02-24 05:52:00,
2013-02-24 01:07:00,36.9,14.8,29.23,NNE,20,0.0,0.0,40,0.00,,,0.00,VWS V14.01,2013-02-24 06:07:00,
2013-02-24 01:22:00,36.9,14.8,29.23,NNE,20,0.0,0.0,40,0.00,,,0.00,VWS V14.01,2013-02-24 06:22:00,
2013-02-24 01:37:00,36.5,15.1,29.23,NNE,20,0.0,0.0,41,0.00,,,0.00,VWS V14.01,2013-02-24 06:37:00,
2013-02-24 01:52:00,36.3,14.9,29.23,NNE,20,0.0,0.0,41,0.00,,,0.00,VWS V14.01,2013-02-24 06:52:00,
2013-02-24 02:07:00,36.1,14.7,29.23,NNE,20,0.0,0.0,41,0.00,,,0.00,VWS V14.01,2013-02-24 07:07:00,
2013-02-24 02:22:00,36.1,15.3,29.23,NNE,20,0.0,0.0,42,0.00,,,0.00,VWS V14.01,2013-02-24 07:22:00,
2013-02-24 02:37:00,36.5,16.1,29.23,NNE,20,0.0,0.0,43,0.00,,,0.00,VWS V14.01,2013-02-24 07:37:00,
2013-02-24 02:52:00,36.1,15.8,29.26,NNE,20,0.0,0.0,43,0.00,,,0.00,VWS V14.01,2013-02-24 07:52:00,
2013-02-24 03:07:00,36.1,15.8,29.26,NNE,20,0.0,0.0,43,0.00,,,0.00,VWS V14.01,2013-02-24 08:07:00,
2013-02-24 03:22:00,35.8,15.5,29.26,NNE,20,0.0,0.0,43,0.00,,,0.00,VWS V14.01,2013-02-24 08:22:00,
2013-02-24 03:37:00,34.9,14.7,29.26,NNE,20,0.0,0.0,43,0.00,,,0.00,VWS V14.01,2013-02-24 08:37:00,
2013-02-24 03:52:00,34.7,14.5,29.26,NNE,20,0.0,0.0,43,0.00,,,0.00,VWS V14.01,2013-02-24 08:52:00,
2013-02-24 04:07:00,34.2,14.0,29.26,NNE,20,0.0,0.0,43,0.00,,,0.00,VWS V14.01,2013-02-24 09:07:00,
2013-02-24 04:22:00,33.8,13.7,29.26,NNE,20,0.0,0.0,43,0.00,,,0.00,VWS V14.01,2013-02-24 09:22:00,
2013-02-24 04:37:00,33.4,13.9,29.26,NNE,20,0.0,0.0,44,0.00,,,0.00,VWS V14.01,2013-02-24 09:37:00,
2013-02-24 04:52:00,32.9,13.4,29.26,NNE,20,0.0,0.0,44,0.00,,,0.00,VWS V14.01,2013-02-24 09:52:00,
2013-02-24 05:07:00,32.7,13.2,29.26,NNE,20,0.0,0.0,44,0.00,,,0.00,VWS V14.01,2013-02-24 10:07:00,
2013-02-24 05:22:00,32.7,13.7,29.26,NNE,20,0.0,0.0,45,0.00,,,0.00,VWS V14.01,2013-02-24 10:22:00,
2013-02-24 05:37:00,32.2,13.2,29.26,NNE,20,0.0,0.0,45,0.00,,,0.00,VWS V14.01,2013-02-24 10:37:00,
2013-02-24 05:52:00,32.0,13.1,29.29,NNE,20,0.0,0.0,45,0.00,,,0.00,VWS V14.01,2013-02-24 10:52:00,
2013-02-24 06:07:00,31.5,12.6,29.29,NNE,20,0.0,0.0,45,0.00,,,0.00,VWS V14.01,2013-02-24 11:07:00,
2013-02-24 06:22:00,31.3,12.9,29.32,NNE,20,0.0,0.0,46,0.00,,,0.00,VWS V14.01,2013-02-24 11:22:00,
2013-02-24 06:37:00,31.1,12.8,29.32,NNE,20,0.0,0.0,46,0.00,,,0.00,VWS V14.01,2013-02-24 11:37:00,
2013-02-24 06:52:00,31.1,12.8,29.32,NNE,20,0.0,0.0,46,0.00,,,0.00,VWS V14.01,2013-02-24 11:52:00,
2013-02-24 07:07:00,30.7,12.4,29.32,NNE,20,0.0,0.0,46,0.00,,,0.00,VWS V14.01,2013-02-24 12:07:00,
2013-02-24 07:22:00,30.7,12.9,29.32,NNE,20,0.0,0.0,47,0.00,,,0.00,VWS V14.01,2013-02-24 12:22:00,
2013-02-24 07:37:00,31.5,14.1,29.35,NNE,20,0.0,0.0,48,0.00,,,0.00,VWS V14.01,2013-02-24 12:37:00,
2013-02-24 07:52:00,31.8,14.4,29.35,NNE,20,0.0,0.0,48,0.00,,,0.00,VWS V14.01,2013-02-24 12:52:00,
2013-02-24 08:07:00,32.2,15.2,29.35,NNE,20,0.0,0.0,49,0.00,,,0.00,VWS V14.01,2013-02-24 13:07:00,
2013-02-24 08:22:00,33.8,17.1,29.35,NNE,20,0.0,0.0,50,0.00,,,0.00,VWS V14.01,2013-02-24 13:22:00,
2013-02-24 08:37:00,34.9,18.1,29.35,NNE,20,0.0,0.0,50,0.00,,,0.00,VWS V14.01,2013-02-24 13:37:00,
2013-02-24 08:52:00,36.1,17.9,29.38,NNE,20,0.0,0.0,47,0.00,,,0.00,VWS V14.01,2013-02-24 13:52:00,
2013-02-24 09:07:00,36.1,14.2,29.38,South,179,0.0,0.0,40,0.00,,,0.00,VWS V14.01,2013-02-24 14:07:00,
2013-02-24 09:22:00,37.6,14.9,29.38,SSE,153,0.0,4.5,39,0.00,,,0.00,VWS V14.01,2013-02-24 14:22:00,
2013-02-24 09:37:00,39.2,12.5,29.38,NW,325,4.0,4.0,33,0.00,,,0.00,VWS V14.01,2013-02-24 14:37:00,
2013-02-24 09:52:00,40.5,10.7,29.38,NE,42,2.2,4.0,29,0.00,,,0.00,VWS V14.01,2013-02-24 14:52:00,
2013-02-24 10:07:00,40.1,10.4,29.38,NNW,345,4.0,4.0,29,0.00,,,0.00,VWS V14.01,2013-02-24 15:07:00,
2013-02-24 10:22:00,39.7,9.3,29.38,NNE,33,0.0,5.8,28,0.00,,,0.00,VWS V14.01,2013-02-24 15:22:00,
2013-02-24 10:37:00,41.2,10.6,29.38,North,353,0.0,4.5,28,0.00,,,0.00,VWS V14.01,2013-02-24 15:37:00,
2013-02-24 10:52:00,42.1,9.7,29.38,East,98,0.0,5.4,26,0.00,,,0.00,VWS V14.01,2013-02-24 15:52:00,
2013-02-24 11:07:00,42.8,9.4,29.38,North,353,0.0,6.3,25,0.00,,,0.00,VWS V14.01,2013-02-24 16:07:00,
2013-02-24 11:22:00,43.9,10.4,29.38,NNW,345,0.0,4.0,25,0.00,,,0.00,VWS V14.01,2013-02-24 16:22:00,
2013-02-24 11:37:00,44.2,10.7,29.38,East,88,0.0,4.9,25,0.00,,,0.00,VWS V14.01,2013-02-24 16:37:00,
2013-02-24 11:52:00,44.2,8.8,29.35,SE,127,6.3,11.0,23,0.00,,,0.00,VWS V14.01,2013-02-24 16:52:00,
2013-02-24 12:07:00,45.0,8.4,29.35,North,353,3.6,8.3,22,0.00,,,0.00,VWS V14.01,2013-02-24 17:07:00,
2013-02-24 12:22:00,45.1,8.6,29.35,East,98,0.0,6.3,22,0.00,,,0.00,VWS V14.01,2013-02-24 17:22:00,
2013-02-24 12:37:00,45.5,8.9,29.35,ENE,68,3.1,6.3,22,0.00,,,0.00,VWS V14.01,2013-02-24 17:37:00,
2013-02-24 12:52:00,46.9,10.1,29.35,SSW,192,4.9,5.8,22,0.00,,,0.00,VWS V14.01,2013-02-24 17:52:00,
2013-02-24 13:07:00,46.9,10.1,29.35,SE,128,8.3,8.3,22,0.00,,,0.00,VWS V14.01,2013-02-24 18:07:00,
2013-02-24 13:22:00,47.1,10.2,29.35,East,91,2.7,8.7,22,0.00,,,0.00,VWS V14.01,2013-02-24 18:22:00,
2013-02-24 13:37:00,48.0,11.0,29.35,ESE,107,5.4,6.3,22,0.00,,,0.00,VWS V14.01,2013-02-24 18:37:00,
2013-02-24 13:52:00,48.4,10.3,29.35,ENE,68,6.3,7.6,21,0.00,,,0.00,VWS V14.01,2013-02-24 18:52:00,
2013-02-24 14:07:00,47.7,10.7,29.35,South,178,3.6,12.3,22,0.00,,,0.00,VWS V14.01,2013-02-24 19:07:00,
2013-02-24 14:22:00,48.6,10.4,29.35,WSW,238,3.1,7.2,21,0.00,,,0.00,VWS V14.01,2013-02-24 19:22:00,
2013-02-24 14:37:00,48.7,10.6,29.32,SSE,165,3.6,7.6,21,0.00,,,0.00,VWS V14.01,2013-02-24 19:37:00,
2013-02-24 14:52:00,49.1,10.9,29.35,West,273,3.1,8.7,21,0.00,,,0.00,VWS V14.01,2013-02-24 19:52:00,
2013-02-24 15:07:00,49.5,11.2,29.35,South,182,4.0,6.3,21,0.00,,,0.00,VWS V14.01,2013-02-24 20:07:00,
2013-02-24 15:22:00,48.9,10.7,29.35,SSE,148,6.3,10.1,21,0.00,,,0.00,VWS V14.01,2013-02-24 20:22:00,
2013-02-24 15:37:00,48.0,11.0,29.35,East,83,0.0,11.0,22,0.00,,,0.00,VWS V14.01,2013-02-24 20:37:00,
2013-02-24 15:52:00,47.3,10.4,29.35,ESE,123,5.4,5.8,22,0.00,,,0.00,VWS V14.01,2013-02-24 20:52:00,
2013-02-24 16:07:00,47.1,10.2,29.35,South,178,5.4,6.3,22,0.00,,,0.00,VWS V14.01,2013-02-24 21:07:00,
2013-02-24 16:22:00,46.9,10.1,29.35,SE,137,4.0,8.7,22,0.00,,,0.00,VWS V14.01,2013-02-24 21:22:00,
2013-02-24 16:37:00,46.9,10.1,29.35,NNW,340,4.0,8.3,22,0.00,,,0.00,VWS V14.01,2013-02-24 21:37:00,
2013-02-24 16:52:00,46.4,9.6,29.35,SE,128,2.2,5.8,22,0.00,,,0.00,VWS V14.01,2013-02-24 21:52:00,
2013-02-24 17:07:00,46.2,9.5,29.35,SE,129,0.0,3.6,22,0.00,,,0.00,VWS V14.01,2013-02-24 22:07:00,
2013-02-24 17:22:00,45.1,8.6,29.35,ENE,72,0.0,4.9,22,0.00,,,0.00,VWS V14.01,2013-02-24 22:22:00,
2013-02-24 17:37:00,44.6,8.1,29.35,ENE,75,0.0,0.0,22,0.00,,,0.00,VWS V14.01,2013-02-24 22:37:00,
2013-02-24 17:52:00,43.9,8.5,29.38,NNW,345,8.3,8.3,23,0.00,,,0.00,VWS V14.01,2013-02-24 22:52:00,
2013-02-24 18:07:00,44.2,8.8,29.38,WNW,294,0.0,8.3,23,0.00,,,0.00,VWS V14.01,2013-02-24 23:07:00,
2013-02-24 18:22:00,43.5,8.2,29.38,SSE,150,0.0,4.0,23,0.00,,,0.00,VWS V14.01,2013-02-24 23:22:00,
2013-02-24 18:37:00,41.9,6.8,29.38,West,278,0.0,0.0,23,0.00,,,0.00,VWS V14.01,2013-02-24 23:37:00,
2013-02-24 18:52:00,41.7,6.7,29.38,NW,304,0.0,4.0,23,0.00,,,0.00,VWS V14.01,2013-02-24 23:52:00,
2013-02-24 19:07:00,41.7,6.7,29.38,West,281,0.0,0.0,23,0.00,,,0.00,VWS V14.01,2013-02-25 00:07:00,
2013-02-24 19:22:00,41.4,6.4,29.41,ENE,59,3.1,3.1,23,0.00,,,0.00,VWS V14.01,2013-02-25 00:22:00,
2013-02-24 19:37:00,41.2,6.2,29.44,South,179,4.0,5.4,23,0.00,,,0.00,VWS V14.01,2013-02-25 00:37:00,
2013-02-24 19:52:00,40.8,5.9,29.44,North,7,0.0,5.4,23,0.00,,,0.00,VWS V14.01,2013-02-25 00:52:00,
2013-02-24 20:07:00,39.2,4.5,29.44,North,7,0.0,0.0,23,0.00,,,0.00,VWS V14.01,2013-02-25 01:07:00,
2013-02-24 20:22:00,38.1,4.5,29.44,North,8,0.0,0.0,24,0.00,,,0.00,VWS V14.01,2013-02-25 01:22:00,
2013-02-24 20:37:00,37.4,3.9,29.44,North,3,0.0,0.0,24,0.00,,,0.00,VWS V14.01,2013-02-25 01:37:00,
2013-02-24 20:52:00,37.8,4.2,29.47,NW,316,0.0,4.9,24,0.00,,,0.00,VWS V14.01,2013-02-25 01:52:00,
2013-02-24 21:07:00,37.6,4.1,29.47,NNW,334,4.9,6.3,24,0.00,,,0.00,VWS V14.01,2013-02-25 02:07:00,
2013-02-24 21:22:00,36.3,3.0,29.47,North,350,5.4,9.6,24,0.00,,,0.00,VWS V14.01,2013-02-25 02:22:00,
2013-02-24 21:37:00,35.6,2.4,29.47,NW,304,3.1,5.8,24,0.00,,,0.00,VWS V14.01,2013-02-25 02:37:00,
2013-02-24 21:52:00,34.9,2.6,29.47,NNW,339,0.0,4.0,25,0.00,,,0.00,VWS V14.01,2013-02-25 02:52:00,
2013-02-24 22:07:00,34.0,1.9,29.47,NW,318,3.1,3.1,25,0.00,,,0.00,VWS V14.01,2013-02-25 03:07:00,
2013-02-24 22:22:00,33.8,1.7,29.50,NW,311,0.0,5.4,25,0.00,,,0.00,VWS V14.01,2013-02-25 03:22:00,
2013-02-24 22:37:00,33.6,1.6,29.50,NW,307,0.0,4.9,25,0.00,,,0.00,VWS V14.01,2013-02-25 03:37:00,
2013-02-24 22:52:00,32.9,0.9,29.50,NW,324,0.0,0.0,25,0.00,,,0.00,VWS V14.01,2013-02-25 03:52:00,
2013-02-24 23:07:00,32.7,0.8,29.50,NW,319,0.0,0.0,25,0.00,,,0.00,VWS V14.01,2013-02-25 04:07:00,
2013-02-24 23:22:00,32.4,0.5,29.50,NW,319,0.0,0.0,25,0.00,,,0.00,VWS V14.01,2013-02-25 04:22:00,
2013-02-24 23:37:00,32.0,0.2,29.50,NW,319,0.0,0.0,25,0.00,,,0.00,VWS V14.01,2013-02-25 04:37:00,
2013-02-24 23:52:00,31.6,-0.1,29.50,NW,319,0.0,0.0,25,0.00,,,0.00,VWS V14.01,2013-02-25 04:52:00,